FW1833 Estmere CA current weather conditions

sailwx.info

Wind from 274 at 0 knots gusting 5

Air temperature 20.6° C
Dewpoint 16.2° C

Last reported at 2020-May-29 03:16 UTC.
Time now 2020-May-29 04:05 UTC

Location: N 45°57' W 060°60'.
View on Google Maps.

See reports from other nearby stations

  
Tides and Currents Weather Stations Pressure Air Temp Water Temp Dewpoint Dewpoint Depression Visibility Wind Speed Wind Dir Waves Ship Positions
date/time (UTC)wind fromknots sea level pressurealtimeterstation pressurevisibilityair tempwater tempwave heightnotes
2020-May-29 03:16 274 0 gusting 5 20.6
2020-May-29 03:10 280 1 gusting 3 20.6
2020-May-29 03:05 280 1 gusting 5 21.1
2020-May-29 03:00 270 2 gusting 5 21.1
2020-May-29 02:55 265 1 gusting 5 21.1
2020-May-29 02:50 269 1 gusting 4 21.1
2020-May-29 02:45 272 1 gusting 5 21.1
2020-May-29 02:40 246 2 gusting 5 20.6
2020-May-29 02:35 268 1 gusting 5 20.6
2020-May-29 02:30 278 1 gusting 5 20.6
2020-May-29 02:25 277 2 gusting 5 20.6
2020-May-29 02:20 287 1 gusting 5 20.6
2020-May-29 02:16 285 1 gusting 6 21.1
2020-May-29 02:10 292 2 gusting 6 21.1
2020-May-29 02:05 268 21.1
2020-May-29 02:01 268 0 gusting 3 21.1
2020-May-29 01:55 268 21.7
2020-May-29 01:50 268 0 gusting 6 21.7
2020-May-29 01:46 295 1 gusting 7 21.7
2020-May-29 01:40 278 2 gusting 9 21.7
2020-May-29 01:35 291 5 gusting 9 21.7
2020-May-29 01:30 311 4 gusting 8 21.7
2020-May-29 01:25 302 6 gusting 9 21.7
2020-May-29 01:20 286 5 gusting 9 21.7
2020-May-29 01:16 265 3 gusting 7 22.2
2020-May-29 01:10 276 2 gusting 8 22.2
2020-May-29 01:05 275 5 gusting 8 22.2
2020-May-29 01:01 276 4 gusting 6 22.2
2020-May-29 00:55 268 2 gusting 5 22.8
2020-May-29 00:50 274 2 gusting 7 22.8
2020-May-29 00:45 287 3 gusting 6 22.8
2020-May-29 00:40 288 3 gusting 6 23.3
2020-May-29 00:35 277 3 gusting 6 23.3
2020-May-29 00:31 268 1 gusting 5 23.3
2020-May-29 00:25 270 1 gusting 4 23.3
2020-May-29 00:20 238 1 gusting 4 23.9
2020-May-29 00:16 241 0 gusting 3 23.9
2020-May-29 00:10 241 23.9
2020-May-29 00:05 241 2 gusting 7 23.9
2020-May-29 00:01 257 24.4
2020-May-28 23:55 257 1 gusting 5 24.4
2020-May-28 23:50 285 1 gusting 5 24.4
2020-May-28 23:45 285 25.0
2020-May-28 23:40 285 1 gusting 3 25.0
2020-May-28 23:35 285 0 gusting 2 25.0
2020-May-28 23:30 285 0 gusting 5 25.6
2020-May-28 23:25 285 1 gusting 5 25.6
2020-May-28 23:20 272 2 gusting 6 25.6
2020-May-28 23:15 282 2 gusting 6 26.1
2020-May-28 23:10 262 3 gusting 6 26.1
2020-May-28 23:05 296 3 gusting 6 26.1
2020-May-28 23:00 285 1 gusting 6 26.1
2020-May-28 22:55 340 0 gusting 4 26.1
2020-May-28 22:50 344 0 gusting 4 26.1
2020-May-28 22:45 344 26.1
2020-May-28 22:40 344 0 gusting 2 26.1
2020-May-28 22:35 344 26.1
2020-May-28 22:31 344 0 gusting 2 26.1
2020-May-28 22:25 344 0 gusting 4 26.1
2020-May-28 22:20 344 1 gusting 4 26.7
2020-May-28 22:10 270 0 gusting 3 27.2
2020-May-28 22:05 270 1 gusting 3 26.7
2020-May-28 22:00 268 0 gusting 4 26.1
2020-May-28 21:55 270 1 gusting 3 26.1
2020-May-28 21:45 009 0 gusting 3 26.1
2020-May-28 21:40 009 1 gusting 4 26.1
2020-May-28 21:35 009 0 gusting 4 26.7
2020-May-28 21:25 329 27.2
2020-May-28 21:20 317 2 gusting 5 27.2
2020-May-28 21:10 324 3 gusting 6 27.2
2020-May-28 21:05 340 3 gusting 8 27.2
2020-May-28 21:00 290 5 gusting 9 27.2
2020-May-28 20:50 287 6 gusting 9 27.8
2020-May-28 20:40 287 2 gusting 6 27.8
2020-May-28 20:35 286 2 gusting 6 27.8
2020-May-28 20:25 284 4 gusting 10 28.3
2020-May-28 20:20 293 5 gusting 11 28.3
2020-May-28 20:10 291 6 gusting 11 28.9
2020-May-28 20:05 285 5 gusting 9 28.9
2020-May-28 19:55 296 5 gusting 11 29.4
2020-May-28 19:50 249 4 gusting 13 30.0
2020-May-28 19:45 299 9 gusting 13 29.4
2020-May-28 19:40 255 7 gusting 14 29.4
2020-May-28 19:35 280 7 gusting 14 29.4
2020-May-28 19:25 278 7 gusting 12 30.0
2020-May-28 19:20 255 7 gusting 13 30.0
2020-May-28 19:10 280 9 gusting 13 30.0
2020-May-28 19:05 280 8 gusting 14 30.6
2020-May-28 19:00 279 8 gusting 14 30.6
2020-May-28 18:55 309 7 gusting 15 30.6
2020-May-28 18:50 318 8 gusting 15 30.6
2020-May-28 18:45 267 9 gusting 14 30.6
2020-May-28 18:40 293 6 gusting 12 30.6
2020-May-28 18:35 282 8 gusting 17 30.6
2020-May-28 18:30 293 9 gusting 17 30.6
2020-May-28 18:25 265 8 gusting 21 30.0
2020-May-28 18:20 300 8 gusting 13 30.0
2020-May-28 18:11 295 7 gusting 13 29.4
2020-May-28 18:06 274 7 gusting 12 28.9
2020-May-28 18:01 328 6 gusting 13 29.4
2020-May-28 17:56 248 6 gusting 14 29.4
2020-May-28 17:51 266 6 gusting 18 30.0
2020-May-28 17:46 276 8 gusting 18 30.0
2020-May-28 17:40 306 5 gusting 16 30.0
2020-May-28 17:35 270 9 gusting 16 29.4
2020-May-28 17:31 283 6 gusting 14 29.4
2020-May-28 17:26 282 6 gusting 13 29.4
2020-May-28 17:20 229 8 gusting 13 29.4
2020-May-28 17:16 292 6 gusting 13 28.9
2020-May-28 17:10 275 7 gusting 13 28.9
2020-May-28 17:06 268 6 gusting 14 29.4
2020-May-28 17:01 313 7 gusting 14 28.9
2020-May-28 16:55 292 6 gusting 14 28.9
2020-May-28 16:50 324 6 gusting 13 28.9
2020-May-28 16:46 318 6 gusting 13 28.9
2020-May-28 16:40 283 6 gusting 13 28.3
2020-May-28 16:35 273 4 gusting 13 28.3
2020-May-28 16:31 256 7 gusting 14 28.3
2020-May-28 16:25 309 7 gusting 16 28.3
2020-May-28 16:20 255 6 gusting 16 28.3
2020-May-28 16:16 277 10 gusting 16 28.3
2020-May-28 16:10 322 5 gusting 11 28.3
2020-May-28 16:05 354 5 gusting 14 28.3
2020-May-28 16:00 321 6 gusting 14 28.3
2020-May-28 15:50 278 6 gusting 13 27.8
2020-May-28 15:46 301 7 gusting 13 27.8
2020-May-28 15:40 299 5 gusting 13 27.8
2020-May-28 15:35 268 6 gusting 13 27.8
2020-May-28 15:30 301 5 gusting 10 27.2
2020-May-28 15:25 320 5 gusting 11 27.2
2020-May-28 15:20 313 5 gusting 11 27.2
2020-May-28 15:16 281 5 gusting 14 27.2
2020-May-28 15:10 319 7 gusting 14 26.7
2020-May-28 15:05 279 6 gusting 12 27.2
2020-May-28 14:55 295 5 gusting 8 27.2
2020-May-28 14:50 322 4 gusting 7 27.2
2020-May-28 14:46 327 4 gusting 12 26.7
2020-May-28 14:40 284 5 gusting 12 26.7
2020-May-28 14:35 299 6 gusting 10 26.7
2020-May-28 14:30 315 5 gusting 7 26.1
2020-May-28 14:25 287 4 gusting 9 25.6
2020-May-28 14:20 306 6 gusting 10 25.6
2020-May-28 14:10 276 6 gusting 10 25.0
2020-May-28 14:05 269 4 gusting 7 25.0
2020-May-28 13:55 277 4 gusting 9 23.9
2020-May-28 13:50 303 5 gusting 8 23.3
2020-May-28 13:40 161 1 gusting 4 21.1
2020-May-28 13:35 166 2 gusting 5 20.6
2020-May-28 13:31 164 2 gusting 6 20.0
2020-May-28 13:26 158 2 gusting 5 19.4
2020-May-28 13:21 168 2 gusting 5 18.9
2020-May-28 13:16 144 2 gusting 6 18.9
2020-May-28 13:10 157 5 gusting 6 19.4
2020-May-28 13:05 158 2 gusting 6 20.0
2020-May-28 13:01 177 1 gusting 4 20.6
2020-May-28 12:56 256 1 gusting 6 20.6
2020-May-28 12:50 252 1 gusting 11 20.0
2020-May-28 12:46 285 2 gusting 5 18.9
2020-May-28 12:40 226 3 gusting 5 18.3
2020-May-28 12:35 293 1 gusting 6 17.8
2020-May-28 12:32 180 0 gusting 4 17.2
2020-May-28 12:25 179 1 gusting 3 16.7
2020-May-28 12:20 179 1 gusting 4 16.7
2020-May-28 12:16 173 2 gusting 3 16.1
2020-May-28 12:10 173 2 gusting 4 16.1
2020-May-28 12:05 168 1 gusting 4 16.1
2020-May-28 12:00 167 2 gusting 5 16.1
2020-May-28 11:55 185 2 gusting 5 16.1
2020-May-28 11:50 195 2 gusting 6 16.1
2020-May-28 11:45 175 3 gusting 6 16.1
2020-May-28 11:41 167 2 gusting 6 15.6
2020-May-28 11:35 154 3 gusting 6 15.6
2020-May-28 11:30 159 4 gusting 7 15.0
2020-May-28 11:25 165 4 gusting 7 15.0
2020-May-28 11:20 163 3 gusting 5 14.4
2020-May-28 11:16 162 2 gusting 5 14.4
2020-May-28 11:10 170 3 gusting 5 14.4
2020-May-28 11:05 185 2 gusting 5 13.9
2020-May-28 11:00 170 2 gusting 5 13.3
2020-May-28 10:55 176 2 gusting 5 12.8
2020-May-28 10:50 173 2 gusting 4 12.8
2020-May-28 10:45 170 2 gusting 4 12.8
2020-May-28 10:40 176 1 gusting 4 12.2
2020-May-28 10:35 176 1 gusting 5 12.2
2020-May-28 10:31 176 1 gusting 5 12.8
2020-May-28 10:25 161 2 gusting 5 12.8
2020-May-28 10:20 161 2 gusting 5 12.8
2020-May-28 10:15 134 2 gusting 4 12.2
2020-May-28 10:10 134 1 gusting 3 12.2
2020-May-28 10:00 134 2 gusting 4 12.2
2020-May-28 09:55 134 1 gusting 3 12.2
2020-May-28 09:50 134 1 gusting 2 12.2
2020-May-28 09:45 134 12.2
2020-May-28 09:40 134 12.2
2020-May-28 09:35 134 12.2
2020-May-28 09:25 134 0 gusting 2 12.2
2020-May-28 09:20 134 0 gusting 2 12.2
2020-May-28 09:16 134 12.2
2020-May-28 09:10 134 12.2
2020-May-28 09:05 134 0 gusting 1 12.2
2020-May-28 09:00 134 12.2
2020-May-28 08:55 134 0 gusting 1 12.2
2020-May-28 08:50 134 12.2
2020-May-28 08:40 134 0 gusting 1 12.2
2020-May-28 08:31 134 0 gusting 2 12.2
2020-May-28 08:25 134 0 gusting 2 12.2
2020-May-28 08:15 134 0 gusting 3 12.2
2020-May-28 08:10 134 1 gusting 3 12.2
2020-May-28 08:05 134 1 gusting 3 12.2
2020-May-28 08:00 134 1 gusting 3 12.2
2020-May-28 07:55 129 1 gusting 3 12.2
2020-May-28 07:50 129 0 gusting 2 12.2
2020-May-28 07:40 129 12.2
2020-May-28 07:35 129 2 gusting 4 12.2
2020-May-28 07:25 003 0 gusting 2 12.8
2020-May-28 07:20 004 1 gusting 2 12.8
2020-May-28 07:15 003 0 gusting 2 12.8
2020-May-28 07:10 004 0 gusting 2 12.8
2020-May-28 07:05 004 0 gusting 2 12.8
2020-May-28 07:00 004 0 gusting 1 12.8
2020-May-28 06:55 004 0 gusting 2 13.3
2020-May-28 06:50 004 0 gusting 2 13.3
2020-May-28 06:45 003 13.3
2020-May-28 06:40 004 13.3
2020-May-28 06:35 003 13.3
2020-May-28 06:30 004 0 gusting 1 13.3
2020-May-28 06:21 003 13.3
2020-May-28 06:17 004 13.3
2020-May-28 06:10 004 12.8
2020-May-28 06:06 003 12.8
2020-May-28 06:01 004 13.3
2020-May-28 05:56 004 13.3
2020-May-28 05:51 003 13.3
2020-May-28 05:46 004 13.3
2020-May-28 05:40 004 13.3
2020-May-28 05:35 004 13.3
2020-May-28 05:32 004 13.3
2020-May-28 05:26 004 13.3
2020-May-28 05:20 004 13.3
2020-May-28 05:16 004 12.8
2020-May-28 05:11 004 12.8
2020-May-28 05:05 004 13.3
2020-May-28 05:02 004 13.3
2020-May-28 04:55 004 13.3
2020-May-28 04:50 004 13.3
2020-May-28 04:46 004 0 gusting 1 13.3
2020-May-28 04:40 004 0 gusting 3 13.3
2020-May-28 04:36 004 1 gusting 3 13.3
2020-May-28 04:31 004 1 gusting 3 13.3
2020-May-28 04:25 004 1 gusting 2 13.9
2020-May-28 04:20 004 0 gusting 1 13.9
2020-May-28 04:16 004 13.9
2020-May-28 04:11 004 0 gusting 1 13.9
2020-May-28 04:06 004 0 gusting 1 13.9
2020-May-28 04:01 004 0 gusting 1 13.9
2020-May-28 03:55 004 13.9
2020-May-28 03:51 004 13.9
2020-May-28 03:46 004 13.9
2020-May-28 03:40 004 0 gusting 2 13.9
2020-May-28 03:35 004 0 gusting 2 13.9
2020-May-28 03:31 004 0 gusting 2 13.9
2020-May-28 03:25 004 0 gusting 1 13.9
2020-May-28 03:20 004 13.9
2020-May-28 03:15 004 0 gusting 2 13.9
2020-May-28 03:10 004 1 gusting 4 13.9
2020-May-28 03:05 004 2 gusting 4 13.9
2020-May-28 03:01 004 1 gusting 2 13.9
2020-May-28 02:55 004 1 gusting 3 13.9
2020-May-28 02:51 004 1 gusting 2 13.3
2020-May-28 02:47 004 0 gusting 2 13.3
2020-May-28 02:40 004 0 gusting 1 13.3
2020-May-28 02:35 004 13.3
2020-May-28 02:31 004 13.3
2020-May-28 02:25 004 0 gusting 3 13.3
2020-May-28 02:20 004 1 gusting 4 13.3
2020-May-28 02:15 004 0 gusting 2 13.3
2020-May-28 02:10 004 1 gusting 3 13.3
2020-May-28 02:05 004 1 gusting 3 13.9
2020-May-28 02:01 004 1 gusting 2 13.9
2020-May-28 01:55 004 0 gusting 1 13.9
2020-May-28 01:50 004 13.9
2020-May-28 01:45 004 13.9
2020-May-28 01:40 004 0 gusting 1 13.9
2020-May-28 01:35 004 0 gusting 2 13.9
2020-May-28 01:31 004 1 gusting 2 13.9
2020-May-28 01:25 004 1 gusting 2 13.9
2020-May-28 01:20 004 0 gusting 2 13.9
2020-May-28 01:15 004 1 gusting 2 13.9
2020-May-28 01:10 003 0 gusting 3 13.9
2020-May-28 01:05 004 1 gusting 3 13.9
2020-May-28 01:01 004 1 gusting 3 13.9
2020-May-28 00:55 004 1 gusting 3 13.9
2020-May-28 00:50 004 0 gusting 2 13.9
2020-May-28 00:45 004 0 gusting 2 13.9
2020-May-28 00:40 004 0 gusting 3 13.9
2020-May-28 00:35 004 2 gusting 4 13.9
2020-May-28 00:31 004 3 gusting 4 13.9
2020-May-28 00:25 004 1 gusting 4 13.9
2020-May-28 00:20 004 2 gusting 4 14.4
2020-May-28 00:15 004 1 gusting 4 14.4
2020-May-28 00:10 004 2 gusting 4 14.4
2020-May-28 00:05 004 1 gusting 3 14.4
2020-May-28 00:00 003 1 gusting 3 14.4
2020-May-27 23:55 003 2 gusting 4 14.4
2020-May-27 23:50 003 2 gusting 4 14.4
2020-May-27 23:45 053 2 gusting 3 15.0
2020-May-27 23:40 053 1 gusting 3 15.0
2020-May-27 23:35 053 1 gusting 3 15.0
2020-May-27 23:25 055 2 gusting 3 16.1
2020-May-27 23:20 122 16.7
2020-May-27 23:15 122 16.7
2020-May-27 23:10 122 0 gusting 3 16.7
2020-May-27 23:00 120 2 gusting 4 16.7
2020-May-27 22:55 120 1 gusting 3 16.7
2020-May-27 22:50 120 1 gusting 4 17.2
2020-May-27 22:40 140 1 gusting 4 17.2
2020-May-27 22:35 151 1 gusting 3 17.8
2020-May-27 22:25 166 1 gusting 4 17.8
2020-May-27 22:10 190 0 gusting 2 18.3
2020-May-27 22:00 190 1 gusting 3 18.3
2020-May-27 21:55 195 2 gusting 4 18.9
2020-May-27 21:45 226 0 gusting 3 18.9
2020-May-27 21:40 226 0 gusting 2 19.4
2020-May-27 21:35 226 0 gusting 2 18.9
2020-May-27 21:25 226 0 gusting 3 19.4
2020-May-27 21:20 226 0 gusting 3 18.9
2020-May-27 21:15 226 0 gusting 2 18.9
2020-May-27 21:10 226 18.9
2020-May-27 21:05 226 18.9
2020-May-27 20:55 226 0 gusting 2 18.9
2020-May-27 20:50 226 0 gusting 3 18.9
2020-May-27 20:40 226 1 gusting 3 18.9
2020-May-27 20:35 240 0 gusting 2 18.9
2020-May-27 20:25 240 0 gusting 3 18.9
2020-May-27 20:20 240 0 gusting 3 18.9
2020-May-27 20:15 240 1 gusting 3 18.9
2020-May-27 20:10 239 0 gusting 3 18.9
2020-May-27 20:05 239 0 gusting 3 18.9
2020-May-27 20:00 239 0 gusting 2 18.3
2020-May-27 19:55 239 1 gusting 3 18.3
2020-May-27 19:50 239 0 gusting 3 18.3
2020-May-27 19:45 239 18.3
2020-May-27 19:40 239 0 gusting 2 18.3
2020-May-27 19:35 239 0 gusting 4 18.3
2020-May-27 19:30 239 1 gusting 4 18.3
2020-May-27 19:25 239 0 gusting 3 18.3
2020-May-27 19:20 239 0 gusting 4 18.3
2020-May-27 19:15 232 1 gusting 4 18.3
2020-May-27 19:10 239 2 gusting 4 18.3
2020-May-27 19:05 266 1 gusting 5 18.3
2020-May-27 19:00 259 0 gusting 4 18.9
2020-May-27 18:55 264 0 gusting 4 18.3
2020-May-27 18:50 265 1 gusting 5 18.3
2020-May-27 18:45 278 1 gusting 6 18.3
2020-May-27 18:40 257 0 gusting 3 18.3
2020-May-27 18:35 256 0 gusting 3 18.3
2020-May-27 18:30 256 1 gusting 5 18.3
2020-May-27 18:25 262 1 gusting 5 18.3
2020-May-27 18:20 275 1 gusting 5 18.3
2020-May-27 18:15 278 0 gusting 5 18.3
2020-May-27 18:06 232 2 gusting 4 18.3
2020-May-27 18:02 284 0 gusting 3 18.3
2020-May-27 17:56 274 1 gusting 4 17.8
2020-May-27 17:51 274 1 gusting 4 17.8
2020-May-27 17:46 272 1 gusting 3 17.8
2020-May-27 17:41 272 0 gusting 3 17.8
2020-May-27 17:35 272 0 gusting 3 17.8
2020-May-27 17:32 272 1 gusting 3 17.8
2020-May-27 17:25 272 0 gusting 3 17.8
2020-May-27 17:20 272 0 gusting 4 17.8
2020-May-27 17:16 272 0 gusting 5 17.2
2020-May-27 17:10 266 2 gusting 5 17.2
2020-May-27 17:05 262 0 gusting 6 17.2
2020-May-27 17:02 263 2 gusting 6 17.2
2020-May-27 16:56 259 0 gusting 5 17.2
2020-May-27 16:50 266 2 gusting 4 17.2
2020-May-27 16:46 276 0 gusting 5 16.7
2020-May-27 16:40 216 0 gusting 3 16.1
2020-May-27 16:32 216 1 gusting 3 16.1
2020-May-27 16:26 223 1 gusting 3 16.1
2020-May-27 16:20 223 1 gusting 3 16.1
2020-May-27 16:17 230 1 gusting 3 16.1
2020-May-27 16:10 246 1 gusting 3 16.1
2020-May-27 16:05 248 1 gusting 2 16.7
2020-May-27 16:01 248 1 gusting 2 16.7
2020-May-27 15:55 248 1 gusting 2 16.7
2020-May-27 15:46 248 1 gusting 3 16.7
2020-May-27 15:40 248 1 gusting 2 16.7
2020-May-27 15:36 248 0 gusting 2 16.7
2020-May-27 15:31 248 0 gusting 2 17.2
2020-May-27 15:25 248 17.2
2020-May-27 15:20 248 1 gusting 2 17.2
2020-May-27 15:16 248 0 gusting 2 17.2
2020-May-27 15:10 248 0 gusting 2 17.2
2020-May-27 15:05 248 1 gusting 2 17.2
2020-May-27 15:01 248 1 gusting 2 16.7
2020-May-27 14:55 248 0 gusting 2 16.7
2020-May-27 14:46 248 1 gusting 2 16.7
2020-May-27 14:40 248 0 gusting 2 16.7
2020-May-27 14:35 248 1 gusting 2 16.7
2020-May-27 14:31 248 1 gusting 2 16.7
2020-May-27 14:25 248 0 gusting 2 16.1
2020-May-27 14:20 248 1 gusting 2 16.1
2020-May-27 14:16 248 0 gusting 3 16.1
2020-May-27 14:10 248 1 gusting 3 16.1
2020-May-27 14:05 248 0 gusting 2 16.1
2020-May-27 14:01 248 0 gusting 2 16.1
2020-May-27 13:55 248 0 gusting 2 16.1
2020-May-27 13:46 248 0 gusting 2 16.1
2020-May-27 13:40 248 0 gusting 2 16.7
2020-May-27 13:35 248 0 gusting 1 16.7
2020-May-27 13:31 248 0 gusting 2 16.7
2020-May-27 13:25 248 0 gusting 2 17.2
2020-May-27 13:20 248 0 gusting 2 17.2
2020-May-27 13:16 248 17.2
2020-May-27 13:10 248 17.2
2020-May-27 13:05 248 17.2
2020-May-27 13:01 248 17.2
2020-May-27 12:55 248 17.2
2020-May-27 12:46 248 17.2
2020-May-27 12:40 248 0 gusting 2 17.2
2020-May-27 12:35 248 17.2
2020-May-27 12:31 248 17.2
2020-May-27 12:25 248 17.2
2020-May-27 12:20 248 17.2
2020-May-27 12:16 248 17.2
2020-May-27 12:10 248 17.2
2020-May-27 12:05 248 17.2
2020-May-27 12:01 248 17.2
2020-May-27 11:55 248 17.2
2020-May-27 11:45 248 0 gusting 2 17.2
2020-May-27 11:40 248 0 gusting 2 17.2
2020-May-27 11:35 248 17.8
2020-May-27 11:30 248 0 gusting 2 17.8
2020-May-27 11:25 248 17.8
2020-May-27 11:20 248 17.8
2020-May-27 11:15 248 17.8
2020-May-27 11:10 248 0 gusting 1 17.8
2020-May-27 11:05 248 0 gusting 2 17.8
2020-May-27 11:00 248 17.8
2020-May-27 10:55 248 17.8
2020-May-27 10:45 248 17.8
2020-May-27 10:40 248 17.8
2020-May-27 10:35 252 0 gusting 4 17.8
2020-May-27 10:31 266 0 gusting 6 17.8
2020-May-27 10:25 286 0 gusting 6 17.8
2020-May-27 10:20 282 2 gusting 7 17.8
2020-May-27 10:16 278 3 gusting 7 17.8
2020-May-27 10:10 275 3 gusting 6 17.8
2020-May-27 10:05 282 3 gusting 6 17.8
2020-May-27 10:01 291 2 gusting 6 17.8
2020-May-27 09:55 294 2 gusting 6 17.8
2020-May-27 09:45 273 1 gusting 6 17.8
2020-May-27 09:40 272 2 gusting 6 17.8
2020-May-27 09:35 233 2 gusting 6 17.8
2020-May-27 09:32 282 2 gusting 5 17.8
2020-May-27 09:25 288 1 gusting 6 17.8
2020-May-27 09:20 288 2 gusting 6 17.8
2020-May-27 09:15 284 3 gusting 6 17.8
2020-May-27 09:10 277 2 gusting 5 17.8
2020-May-27 09:05 278 2 gusting 6 17.8
2020-May-27 09:01 300 1 gusting 6 17.8
2020-May-27 08:55 298 2 gusting 6 17.8
2020-May-27 08:45 278 2 gusting 6 17.8
2020-May-27 08:40 288 1 gusting 9 17.8
2020-May-27 08:35 287 5 gusting 9 17.8
2020-May-27 08:25 244 0 gusting 3 18.3
2020-May-27 08:15 242 0 gusting 3 18.3
2020-May-27 08:10 242 0 gusting 5 18.3
2020-May-27 08:05 239 2 gusting 7 18.3
2020-May-27 07:55 281 0 gusting 5 18.3
2020-May-27 07:45 281 2 gusting 5 18.3
2020-May-27 07:40 281 18.3
2020-May-27 07:35 281 0 gusting 6 18.3
2020-May-27 07:25 268 18.3
2020-May-27 07:20 268 1 gusting 4 18.3
2020-May-27 07:10 264 2 gusting 6 18.3
2020-May-27 07:05 282 2 gusting 6 18.3
2020-May-27 06:55 259 2 gusting 6 18.3
2020-May-27 06:45 235 1 gusting 5 18.3
2020-May-27 06:40 226 2 gusting 5 18.3
2020-May-27 06:30 270 1 gusting 6 17.8
2020-May-27 06:25 240 1 gusting 3 17.8
2020-May-27 06:20 166 0 gusting 2 17.8
2020-May-27 06:15 165 0 gusting 2 17.8
2020-May-27 06:10 165 0 gusting 2 17.8
2020-May-27 06:05 165 0 gusting 3 17.8
2020-May-27 06:00 165 1 gusting 3 17.8
2020-May-27 05:55 175 1 gusting 3 17.8
2020-May-27 05:45 255 0 gusting 3 17.8
2020-May-27 05:40 264 0 gusting 4 17.8
2020-May-27 05:35 262 1 gusting 6 18.3
2020-May-27 05:25 284 1 gusting 8 18.3
2020-May-27 05:20 212 3 gusting 8 18.3
2020-May-27 05:15 216 2 gusting 7 18.3
2020-May-27 05:10 241 2 gusting 7 18.3
2020-May-27 05:05 216 3 gusting 7 18.3
2020-May-27 05:00 220 2 gusting 5 18.3
2020-May-27 04:55 228 2 gusting 5 18.3
2020-May-27 04:45 254 1 gusting 6 18.3
2020-May-27 04:40 234 2 gusting 6 18.3
2020-May-27 04:35 253 2 gusting 8 18.3
2020-May-27 04:30 240 2 gusting 8 18.3
2020-May-27 04:25 233 3 gusting 6 18.3
2020-May-27 04:20 217 2 gusting 5 18.3
2020-May-27 04:15 173 1 gusting 6 18.3
2020-May-27 04:10 218 2 gusting 6 18.3
2020-May-27 04:01 232 1 gusting 4 18.3